Regional Weather Roundup
Issued by NWS Sioux Falls, SD

Home | Current Version | Previous Version | Text Only | Print | Product List | Glossary Off
Versions: 1 2 3 4 5 6 7 8 9 10 11 12 13 14 15 16 17 18 19 20 21 22 23 24 25 26 27 28 29 30 31 32 33 34 35 36 37 38 39 40 41 42 43 44 45 46 47 48 49 50

000
ASUS43 KFSD 291802
RWRFSD

WEATHER ROUNDUP FOR SE SOUTH DAKOTA/SW MINNESOTA/NW IOWA
NATIONAL WEATHER SERVICE SIOUX FALLS SD
100 PM CDT MON MAY 29 2017

NOTE: "FAIR" INDICATES FEW OR NO CLOUDS BELOW 12,000 FEET WITH NO
SIGNIFICANT WEATHER AND OR OBSTRUCTIONS TO VISIBILITY.


SDZ038>040-050-052>070-291900-
SOUTHEAST SOUTH DAKOTA

CITY           SKY/WX    TMP DP  RH WIND       PRES   REMARKS
BROOKINGS      LGT RAIN  53  49  86 NW12      29.98R
CHAMBERLAIN    CLOUDY    65  42  42 W18G24    30.07S
6HR MIN TEMP:  49; 6HR MAX TEMP:  66;

HURON          CLOUDY    60  43  53 NW18G25   30.02S
6HR MIN TEMP:  48; 6HR MAX TEMP:  63;

MADISON        CLOUDY    55  46  71 NW20G30   30.00R
MITCHELL       PTSUNNY   65  43  44 NW25      30.04R
6HR MIN TEMP:  50; 6HR MAX TEMP:  65;

SIOUX FALLS    PTSUNNY   60  46  59 NW22G31   29.99R
6HR MIN TEMP:  52; 6HR MAX TEMP:  62;

WINNER         FAIR      66  41  40 NW24G36   30.10R
YANKTON        PTSUNNY   65  44  46 NW21G30   30.02S
$$

MNZ071-072-080-081-089-090-097-098-291900-
SOUTHWEST MINNESOTA

CITY           SKY/WX    TMP DP  RH WIND       PRES   REMARKS
FAIRMONT       CLOUDY    59  47  64 NW20G30   29.92R
JACKSON        CLOUDY    59  45  58 W20G26    29.94R
LUVERNE        CLOUDY    59  41  51 NW20G26   29.98S
MARSHALL       LGT RAIN  60  49  66 NW15      29.93S
6HR MIN TEMP:  53; 6HR MAX TEMP:  60; 6HR PCP: TRACE;

MONTEVIDEO     PTSUNNY   63  48  59 NW16G22   29.91R
PIPESTONE      PTSUNNY   57  45  62 NW15G22   29.97S
REDWOOD FALLS  CLOUDY    62  46  55 NW17G28   29.89S
TRACY          LGT RAIN  57  51  81 NW15G25   29.95R
WINDOM         LGT RAIN  57  48  72 W23       29.93S
$$

IAZ001>003-012>014-020>022-031-032-NEZ013-014-SDZ071-291900-
NORTHWEST IOWA

CITY           SKY/WX    TMP DP  RH WIND       PRES   REMARKS
CHEROKEE       PTSUNNY   66  45  47 NW17G31   29.97R
DENISON        MOSUNNY   68  43  40 W15G25    30.00S
ESTHERVILLE    CLOUDY    63  46  54 NW29      29.92R
LE MARS        PTSUNNY   66  43  42 W21G28    29.99S
ORANGE CITY    MOSUNNY   64  46  52 NW21G32   29.98S
SHELDON        PTSUNNY   64  43  45 NW21G29   29.95S
SIOUX CITY     MOSUNNY   70  45  40 NW22G37   29.99S
6HR MIN TEMP:  50; 6HR MAX TEMP:  71;

SPENCER        CLOUDY    64  45  49 NW22G35   29.94S
6HR MIN TEMP:  53; 6HR MAX TEMP:  66;

STORM LAKE       N/A     68  41  37 W25G32    29.96R
$$

ABBREVIATIONS USED IN REMARKS
   TC - TEMPERATURE IN CELSIUS
  WCI - WIND CHILL INDEX
   HX - HEAT INDEX
  VSB - VISIBILITY




USA.gov is the U.S. government's official web portal to all federal, state and local government web resources and services.